Wind_Speed
29 28 24 20 16 19 18 17 18 16 14 11 13 13 13 12 13 15 16 16 15 12 10 8 5 3 4 3 2 3 4 5 5 5 4 4 4 6 8 10 12 10 12 13 15
26 23 22 21 16 17 17 16 16 15 13 11 13 13 14 14 15 17 17 16 14 12 9 8 7 5 6 4 4 3 5 5 5 7 7 8 9 10 12 15 18 19 18 17 17
23 23 22 20 17 18 17 17 15 14 12 13 14 14 15 16 18 18 17 16 14 12 9 8 8 8 8 6 6 6 7 7 6 7 9 10 10 11 13 15 15 18 20 21 22
22 23 24 21 23 16 16 17 14 14 13 14 15 16 17 18 19 19 18 17 14 12 10 10 9 9 9 8 8 9 9 10 11 11 10 11 13 11 12 11 16 20 23 26 29
22 23 26 24 20 17 15 14 13 13 13 15 15 17 19 19 21 21 19 17 15 12 12 11 11 11 11 11 11 11 12 13 14 13 12 13 15 12 13 15 20 24 28 32 37
24 26 26 26 24 16 19 21 15 14 14 15 16 17 18 20 21 22 21 18 16 15 14 14 13 13 13 13 13 14 14 14 14 12 14 15 17 15 17 20 24 29 34 40 42
27 26 26 28 25 20 20 17 17 16 15 16 16 17 19 19 21 22 21 19 18 17 16 15 15 16 15 15 15 16 16 16 15 14 14 17 17 19 22 26 31 35 41 42 48
31 30 30 25 27 27 25 18 19 19 17 16 16 17 18 19 21 21 20 19 18 17 17 18 18 17 16 17 17 17 17 18 15 15 15 19 20 23 26 31 35 42 46 51 52
28 29 29 30 30 30 29 23 21 22 19 18 17 18 19 19 20 20 19 18 18 18 18 19 19 18 18 18 18 17 17 18 15 16 18 21 24 26 28 33 39 44 49 50 49
29 29 28 28 28 26 35 29 26 24 22 20 19 19 20 20 20 20 20 19 20 20 20 20 20 19 19 18 17 18 17 17 17 19 21 23 26 29 32 37 43 47 51 49 42
31 29 31 29 30 24 32 35 34 31 25 25 24 24 24 23 24 23 23 23 23 24 24 23 21 20 19 18 18 18 16 17 18 20 22 26 28 31 34 39 48 53 55 49 42
32 31 31 31 29 27 29 40 41 34 28 28 26 24 24 24 23 23 23 24 25 26 26 24 23 20 19 19 19 16 16 18 20 22 23 28 29 33 37 44 52 55 53 46 44
32 32 31 32 32 31 29 37 39 40 36 31 27 27 25 25 23 24 25 25 24 25 25 25 22 21 19 19 17 16 18 20 21 23 27 29 31 36 40 48 56 54 46 41 40
31 32 32 32 33 31 30 31 43 40 38 34 35 33 30 29 27 26 26 26 26 24 24 24 23 21 20 18 17 19 19 20 22 24 27 30 35 38 44 54 58 44 37 36 36
29 31 32 32 30 32 32 32 35 42 36 31 33 33 31 32 30 28 28 28 27 25 24 23 24 22 20 18 19 19 20 21 23 24 26 30 37 40 50 57 40 34 33 33 34
32 30 30 34 36 33 32 33 31 39 38 29 28 28 28 28 30 28 26 26 26 25 24 24 24 23 22 20 20 20 21 21 22 25 27 30 37 43 48 36 27 29 31 32 36
36 35 31 36 35 31 32 34 34 37 35 36 34 30 26 28 30 27 27 27 27 25 25 25 25 24 22 21 21 21 21 23 24 24 26 30 38 41 37 29 27 26 28 33 34
41 40 38 37 35 33 37 34 38 42 38 36 33 33 32 32 31 30 27 26 26 27 26 25 25 25 22 21 20 20 20 22 24 25 27 30 37 36 32 30 28 25 29 32 32
45 44 43 41 37 41 32 30 36 43 42 40 37 34 30 28 34 35 33 28 27 27 25 24 25 25 24 22 22 20 20 20 22 25 27 29 31 35 34 31 30 30 32 33 35
49 48 47 45 42 40 46 35 35 39 41 41 40 35 34 32 30 32 33 29 25 26 26 25 25 25 26 26 24 22 21 21 22 27 29 30 29 36 32 30 31 32 35 36 37
54 53 50 49 46 44 45 42 36 35 34 35 36 38 30 34 31 31 33 29 29 26 25 24 25 25 27 27 26 23 22 21 23 26 28 31 26 32 31 30 30 33 35 37 40
59 59 56 54 53 50 44 44 38 32 38 34 35 37 38 34 34 36 31 32 29 28 26 26 27 27 28 28 27 23 23 23 23 26 25 30 26 31 28 31 30 29 33 37 41
61 62 62 59 59 55 49 44 40 39 35 38 38 37 39 35 31 37 37 35 33 32 31 29 30 28 27 27 28 24 23 24 25 24 24 30 29 31 29 31 31 30 35 37 39
66 65 66 64 62 58 55 50 45 41 40 36 40 39 33 39 33 33 36 35 34 33 33 32 29 27 26 30 28 24 22 25 26 25 27 24 29 29 30 30 31 34 36 38 39
73 70 66 67 66 63 59 56 49 45 41 37 37 35 39 27 28 33 35 35 34 35 34 34 31 29 28 31 29 25 23 27 27 25 26 26 28 27 27 28 31 33 36 39 41
79 74 73 70 69 67 63 59 53 49 44 43 37 35 35 35 26 31 33 35 35 35 33 32 33 30 27 30 31 26 23 29 27 24 26 26 25 26 27 26 31 36 40 41 41
82 79 78 74 72 73 67 60 55 52 49 47 43 42 40 34 34 30 33 33 35 34 33 33 32 32 27 28 32 27 23 29 27 24 26 25 26 26 27 29 32 37 41 39 39
Wind_Direction
276 283 278 271 277 276 270 269 272 271 264 256 240 233 236 222 210 199 190 191 186 187 189 192 196 200 223 255 321 356 348 349 341 331 325 308 286 288 291 288 284 291 283 276 281
280 278 272 270 270 271 270 269 271 264 258 248 234 233 229 217 201 190 188 191 189 190 199 210 222 227 235 239 275 305 312 325 320 301 295 292 291 281 279 281 294 295 290 290 283
274 273 273 272 255 258 264 276 269 259 248 241 232 231 226 213 199 195 191 198 198 202 211 228 246 251 253 255 264 272 279 291 300 298 296 294 288 289 290 295 292 294 296 294 292
271 273 271 270 259 252 261 269 267 255 245 236 230 231 224 215 207 202 202 205 207 212 223 238 248 254 259 267 268 263 261 268 280 291 295 290 287 284 285 287 288 292 294 294 294
276 274 277 276 248 243 259 253 264 252 242 235 231 231 225 217 212 209 211 213 216 222 233 248 258 264 266 266 266 266 268 268 277 293 292 284 286 294 287 287 290 294 294 294 295
277 274 279 278 257 239 248 247 257 246 239 237 234 232 228 220 217 218 218 221 225 231 237 246 257 267 272 272 270 269 266 272 281 279 267 269 281 290 286 290 291 293 293 295 295
275 274 275 272 263 234 249 244 251 244 237 238 232 231 229 224 222 221 223 227 231 236 243 250 258 263 267 265 266 266 270 275 278 273 272 278 286 285 291 295 301 301 304 302 301
279 277 268 273 271 251 238 229 243 243 236 234 233 231 228 226 226 227 231 234 236 240 247 255 259 260 259 259 258 263 271 281 283 276 278 281 287 289 295 306 308 307 310 310 303
274 271 268 268 275 269 253 228 236 239 234 231 229 230 230 229 230 231 233 240 244 249 252 254 256 255 255 256 262 271 279 283 282 277 280 281 288 296 305 310 307 308 314 315 305
270 268 266 267 266 276 253 231 229 234 235 229 226 229 231 232 234 235 240 247 250 252 254 254 253 252 254 258 265 272 279 281 285 283 282 286 293 300 308 309 310 308 315 308 300
269 267 263 263 267 268 261 233 228 225 230 235 238 239 241 243 245 247 251 252 253 257 256 254 253 253 257 262 268 271 276 279 282 280 285 291 294 302 306 306 308 308 313 301 298
268 262 261 259 261 266 260 249 237 221 228 232 242 242 243 243 245 248 250 253 253 254 256 253 252 253 259 266 269 274 280 281 281 283 286 291 299 303 306 309 308 309 313 305 304
259 259 253 255 255 260 265 255 243 238 225 223 229 235 241 244 245 249 252 253 251 252 252 251 251 252 259 266 269 274 278 279 282 289 294 297 299 302 308 308 309 311 304 299 298
263 255 253 256 255 255 255 260 246 240 233 235 237 236 237 241 246 252 252 252 250 247 247 248 250 254 260 265 270 278 283 286 291 292 293 298 303 308 309 311 312 305 301 299 295
267 267 256 253 254 254 254 256 253 243 237 242 244 246 246 242 246 250 250 249 247 244 241 246 249 253 261 266 273 279 286 291 293 295 299 305 304 310 313 313 314 308 305 302 304
262 260 264 254 256 257 252 255 251 243 243 241 244 246 246 244 242 246 247 243 242 239 240 243 249 255 261 269 275 279 285 291 298 304 302 307 310 316 319 325 323 318 317 312 311
259 260 255 257 250 252 241 244 249 245 246 248 251 250 247 247 239 238 241 241 241 241 242 244 249 252 260 270 276 281 290 297 305 304 309 314 318 323 325 323 321 326 317 313 317
256 256 257 256 263 233 234 246 248 234 240 249 252 248 249 244 241 233 236 239 242 244 247 248 254 256 261 273 278 283 290 302 308 309 312 321 326 324 321 315 323 327 321 320 329
254 254 254 255 254 251 235 234 239 248 242 238 247 249 236 241 240 238 237 240 243 244 246 251 252 257 263 271 278 281 291 299 303 303 308 323 326 319 320 313 322 326 325 331 333
253 252 252 251 250 251 244 228 234 247 243 239 242 235 235 241 244 238 237 233 238 245 248 252 256 260 265 269 278 286 291 298 301 306 312 326 330 319 318 314 323 330 328 333 333
251 251 251 251 250 246 251 246 255 243 239 235 236 237 240 239 241 240 242 239 239 240 245 251 258 262 266 271 277 281 287 294 299 304 313 326 335 320 324 318 320 329 330 333 336
251 249 248 246 248 249 248 257 250 259 246 240 227 233 235 231 232 236 241 240 240 246 252 254 259 262 265 268 273 278 284 291 293 302 313 324 334 314 323 330 319 330 333 334 335
252 249 247 244 246 249 248 249 249 252 251 239 235 232 229 230 234 235 237 241 244 248 253 256 259 261 264 269 272 276 282 285 288 299 309 325 319 308 322 332 332 333 334 332 332
251 249 246 245 245 245 246 245 243 243 250 243 235 228 226 228 233 237 238 238 242 246 250 252 253 259 263 266 267 268 276 280 284 299 305 328 327 302 320 329 331 333 331 330 331
248 248 247 244 244 245 242 243 240 240 242 249 243 237 233 227 235 237 237 237 240 244 248 253 254 257 260 265 267 266 275 282 285 295 304 319 320 306 317 328 332 334 332 331 329
243 244 245 243 242 241 238 239 239 237 237 238 247 251 249 232 240 239 236 237 240 245 249 254 259 258 257 264 267 266 277 279 282 294 303 317 314 310 317 328 334 334 331 330 331
236 239 240 241 240 238 238 238 239 235 233 233 233 243 248 246 230 228 236 233 234 239 245 252 261 263 260 261 266 271 272 276 279 292 297 313 316 314 314 320 327 331 331 332 333
Height
5756 5755 5755 5753 5751 5753 5753 5751 5751 5750 5750 5749 5751 5751 5751 5752 5753 5754 5756 5758 5759 5760 5761 5762 5762 5762 5762 5762 5761 5760 5761 5759 5758 5757 5757 5756 5756 5755 5755 5754 5754 5755 5756 5755 5753
5751 5750 5750 5749 5746 5748 5749 5747 5746 5746 5746 5746 5748 5748 5749 5750 5751 5753 5755 5756 5757 5758 5759 5760 5760 5760 5761 5760 5759 5759 5759 5758 5757 5756 5755 5754 5753 5754 5753 5752 5751 5751 5752 5752 5751
5746 5746 5745 5744 5742 5744 5745 5744 5742 5742 5742 5743 5745 5745 5747 5748 5750 5751 5752 5754 5755 5756 5757 5758 5758 5758 5758 5757 5757 5756 5756 5755 5755 5754 5753 5752 5751 5751 5750 5749 5749 5748 5748 5748 5747
5741 5741 5740 5740 5738 5739 5740 5740 5739 5739 5739 5740 5742 5742 5744 5746 5749 5749 5750 5751 5752 5753 5754 5755 5755 5755 5755 5754 5753 5753 5752 5751 5751 5751 5750 5748 5747 5747 5747 5747 5745 5744 5742 5740 5739
5736 5736 5735 5734 5734 5734 5736 5735 5736 5736 5736 5737 5738 5739 5741 5743 5744 5746 5747 5749 5749 5750 5751 5752 5752 5751 5751 5751 5750 5749 5749 5748 5747 5747 5746 5744 5743 5743 5742 5741 5739 5737 5735 5733 5731
5731 5731 5730 5730 5729 5729 5731 5731 5733 5733 5732 5734 5735 5736 5738 5740 5741 5742 5744 5745 5746 5746 5747 5748 5748 5747 5747 5746 5746 5745 5744 5743 5743 5742 5740 5739 5737 5737 5737 5735 5733 5731 5728 5725 5722
5726 5726 5725 5725 5724 5725 5726 5726 5729 5729 5729 5730 5731 5733 5735 5737 5737 5739 5740 5741 5742 5742 5743 5743 5744 5744 5743 5742 5741 5740 5740 5739 5739 5738 5736 5734 5733 5731 5730 5728 5726 5723 5719 5715 5710
5720 5720 5720 5720 5719 5720 5721 5721 5724 5726 5725 5726 5727 5729 5731 5732 5734 5735 5736 5737 5738 5738 5739 5739 5739 5739 5738 5738 5737 5736 5736 5735 5735 5733 5732 5730 5729 5728 5726 5723 5718 5714 5710 5705 5697
5713 5713 5714 5714 5715 5715 5715 5716 5719 5721 5722 5722 5724 5726 5727 5728 5730 5731 5732 5733 5734 5734 5734 5734 5734 5734 5734 5733 5733 5732 5731 5730 5730 5728 5727 5726 5724 5721 5719 5714 5711 5706 5699 5692 5684
5707 5707 5707 5708 5708 5709 5709 5710 5713 5715 5717 5718 5719 5723 5723 5724 5726 5727 5727 5728 5729 5729 5729 5729 5730 5729 5729 5729 5729 5727 5726 5724 5724 5724 5722 5720 5717 5714 5710 5706 5702 5696 5690 5683 5675
5699 5701 5700 5701 5701 5701 5703 5704 5706 5708 5710 5713 5715 5716 5717 5719 5720 5721 5722 5723 5724 5724 5724 5725 5725 5724 5724 5724 5723 5722 5720 5719 5719 5717 5715 5713 5709 5706 5703 5698 5692 5686 5679 5672 5666
5691 5693 5693 5693 5693 5695 5695 5696 5696 5699 5703 5705 5708 5710 5711 5712 5714 5715 5716 5718 5718 5718 5719 5720 5719 5719 5719 5718 5718 5716 5715 5714 5713 5711 5710 5706 5703 5699 5696 5690 5683 5676 5668 5662 5658
5683 5683 5685 5685 5686 5688 5689 5689 5691 5691 5694 5697 5700 5702 5705 5707 5707 5709 5710 5710 5711 5711 5712 5713 5714 5714 5713 5713 5712 5711 5711 5709 5708 5704 5702 5700 5698 5693 5689 5682 5672 5665 5659 5655 5651
5673 5674 5676 5676 5679 5679 5681 5683 5684 5685 5687 5691 5693 5695 5698 5699 5701 5702 5703 5704 5704 5705 5706 5708 5709 5709 5708 5707 5706 5705 5705 5703 5701 5699 5697 5694 5691 5687 5680 5672 5662 5655 5651 5647 5642
5665 5665 5666 5667 5669 5672 5675 5677 5678 5679 5681 5684 5685 5688 5689 5693 5695 5695 5696 5696 5698 5699 5701 5703 5703 5704 5703 5701 5700 5700 5699 5697 5696 5693 5691 5688 5684 5678 5671 5661 5652 5646 5642 5639 5635
5658 5659 5658 5660 5660 5663 5666 5669 5671 5673 5672 5675 5678 5680 5683 5684 5686 5688 5689 5691 5692 5693 5694 5696 5698 5698 5698 5696 5695 5694 5693 5692 5689 5686 5685 5681 5676 5671 5661 5652 5646 5642 5637 5632 5627
5649 5650 5650 5653 5654 5654 5658 5661 5662 5662 5667 5669 5671 5673 5675 5677 5679 5681 5683 5685 5686 5688 5689 5690 5692 5692 5692 5691 5690 5688 5687 5685 5683 5680 5678 5674 5668 5662 5653 5648 5641 5635 5631 5626 5619
5637 5638 5641 5644 5644 5647 5648 5651 5650 5655 5657 5661 5663 5666 5668 5670 5673 5674 5677 5678 5680 5682 5683 5684 5687 5686 5686 5686 5684 5683 5682 5679 5675 5674 5672 5668 5661 5655 5649 5643 5637 5629 5624 5618 5610
5623 5626 5630 5633 5636 5636 5637 5638 5641 5645 5648 5651 5655 5658 5660 5662 5665 5667 5669 5672 5674 5676 5677 5678 5680 5680 5681 5680 5680 5678 5676 5674 5670 5668 5665 5663 5656 5650 5642 5638 5632 5624 5618 5610 5602
5609 5612 5617 5621 5624 5626 5627 5631 5633 5635 5638 5642 5645 5649 5652 5654 5657 5658 5661 5665 5667 5669 5670 5672 5673 5674 5674 5674 5673 5672 5670 5668 5665 5661 5658 5655 5650 5643 5639 5631 5625 5619 5612 5605 5597
5594 5597 5605 5607 5611 5614 5617 5622 5626 5627 5630 5633 5636 5640 5643 5646 5649 5652 5655 5658 5659 5661 5663 5665 5667 5669 5668 5667 5667 5666 5663 5661 5658 5656 5652 5648 5647 5638 5633 5627 5620 5612 5606 5599 5590
5576 5581 5589 5592 5597 5601 5607 5612 5618 5620 5620 5624 5626 5630 5635 5637 5640 5644 5647 5649 5652 5654 5656 5657 5659 5660 5661 5661 5660 5660 5658 5655 5652 5650 5647 5642 5641 5633 5628 5622 5615 5608 5602 5594 5585
5558 5565 5570 5576 5581 5589 5596 5601 5605 5610 5612 5615 5617 5621 5626 5630 5632 5634 5638 5642 5644 5647 5648 5650 5650 5652 5653 5655 5653 5653 5651 5648 5646 5644 5641 5636 5632 5626 5622 5616 5609 5603 5597 5590 5581
5540 5544 5552 5558 5567 5575 5582 5588 5594 5599 5603 5606 5609 5612 5617 5619 5622 5626 5629 5633 5636 5638 5640 5641 5643 5645 5647 5645 5646 5646 5645 5642 5641 5638 5633 5631 5627 5619 5615 5610 5603 5596 5590 5583 5575
5517 5526 5534 5542 5551 5558 5566 5573 5581 5587 5592 5597 5600 5604 5607 5610 5613 5617 5621 5624 5627 5629 5632 5633 5636 5637 5637 5636 5637 5638 5638 5635 5635 5632 5628 5625 5621 5616 5612 5606 5599 5593 5586 5579 5571
5494 5506 5514 5523 5530 5538 5546 5557 5568 5575 5583 5588 5592 5594 5596 5602 5605 5608 5611 5615 5618 5622 5624 5626 5627 5629 5630 5628 5628 5631 5632 5628 5629 5627 5623 5619 5616 5609 5605 5601 5595 5588 5581 5573 5565
5469 5483 5489 5501 5510 5517 5533 5545 5554 5561 5569 5575 5580 5584 5588 5591 5593 5599 5603 5606 5610 5614 5616 5618 5619 5621 5623 5622 5620 5625 5625 5622 5622 5620 5617 5614 5611 5605 5601 5595 5589 5582 5575 5567 5560